Regional Weather Roundup
Issued by NWS Sioux Falls, SD

Home | Current Version | Previous Version | Text Only | Print | Product List | Glossary On
Versions: 1 2 3 4 5 6 7 8 9 10 11 12 13 14 15 16 17 18 19 20 21 22 23 24 25 26 27 28 29 30 31 32 33 34 35 36 37 38 39 40 41 42 43 44 45 46 47 48 49 50
000
ASUS43 KFSD 310710
RWRFSD

WEATHER ROUNDUP FOR SE SOUTH DAKOTA/SW MINNESOTA/NW IOWA
NATIONAL WEATHER SERVICE SIOUX FALLS SD
200 AM CDT SUN AUG 31 2014

NOTE: "FAIR" INDICATES FEW OR NO CLOUDS BELOW 12,000 FEET WITH NO
SIGNIFICANT WEATHER AND OR OBSTRUCTIONS TO VISIBILITY.


SDZ038>040-050-052>070-310800-
SOUTHEAST SOUTH DAKOTA

CITY           SKY/WX    TMP DP  RH WIND       PRES   REMARKS
CHAMBERLAIN    CLOUDY    67  65  94 SE5       29.68F
HURON          MOCLDY    66  60  81 SE14G22   29.67F
MADISON        FAIR      63  63 100 SE12      29.79F
MITCHELL       PTCLDY    67  62  84 SE15      29.72F
SIOUX FALLS    CLEAR     65  59  81 SE9       29.80F
WINNER         FAIR      74  64  71 S17G26    29.69F
YANKTON        CLEAR     63  61  94 E6        29.77F
$$

MNZ071-072-080-081-089-090-097-098-310800-
SOUTHWEST MINNESOTA

CITY           SKY/WX    TMP DP  RH WIND       PRES   REMARKS
FAIRMONT       CLEAR     59  55  88 S3        29.87F
JACKSON        CLEAR     59  55  88 SE5       29.86F
LUVERNE        CLEAR     63  59  88 SE3       29.83F
MARSHALL       CLEAR     61  57  88 SE9       29.81F
MONTEVIDEO     CLEAR     59  59 100 S6        29.83F FOG
PIPESTONE      CLEAR     63  59  88 SE9       29.82F
REDWOOD FALLS  CLEAR     61  60  97 SE7       29.85F FOG
TRACY          CLEAR     60  59  97 CALM      29.84F
WINDOM         CLEAR     61  59  94 E3        29.86F FOG
WORTHINGTON    CLEAR     61  59  94 SE6       29.86F
$$

IAZ001>003-012>014-020>022-031-032-NEZ013-014-SDZ071-310800-
NORTHWEST IOWA

CITY           SKY/WX    TMP DP  RH WIND       PRES   REMARKS
CHEROKEE       CLEAR     61  61 100 CALM      29.85F
DENISON        CLEAR     68  64  88 SE5       29.84F
ESTHERVILLE    CLEAR     56  56 100 S6        29.87F
LE MARS          N/A     64  63  94 VRB5      29.82F
ORANGE CITY    CLEAR     64  61  88 SE3       29.84S
SHELDON        CLEAR     61  61 100 SE6       29.83F
SIOUX CITY     CLEAR     65  63  93 SE8       29.82F
SPENCER        CLEAR     60  58  92 E5        29.86F
STORM LAKE     CLEAR     61  61 100 SE5       29.87S
$$

ABBREVIATIONS USED IN REMARKS
   TC - TEMPERATURE IN CELSIUS
  WCI - WIND CHILL INDEX
   HX - HEAT INDEX
  VSB - VISIBILITY




USA.gov is the U.S. government's official web portal to all federal, state and local government web resources and services.